CW3508 Weather Reports


Display with metric or nautical units.
time (UTC)temp
F
wind
direction
speed
MPH
gust
MPH
rain 1hr
in
rain 24hr
in
rain mn
in
humidity
%
barometer
mb
20260506215039 73 195 1.0 4.0 0.05 0.17 0.17 95 1008.2
20260506214546 73 169 1.0 5.0 0.14 0.17 0.17 95 1008.2
20260506214035 73 177 1.0 5.0 0.17 0.17 0.17 94 1008.3
20260506213534 73 206 1.0 4.0 0.16 0.16 0.16 94 1008.3
20260506213033 73 160 1.0 4.0 0.16 0.16 0.16 94 1008.3
20260506212534 73 165 0.0 3.0 0.16 0.16 0.16 94 1008.6
20260506212028 74 137 1.0 3.0 0.16 0.16 0.16 94 1008.6
20260506211558 74 229 1.0 3.0 0.16 0.16 0.16 93 1008.6
20260506211022 74 180 1.0 3.0 0.15 0.15 0.15 93 1008.9
20260506210521 74 164 0.0 1.0 0.15 0.15 0.15 92 1008.9
20260506210023 74 164 0.0 2.0 0.15 0.15 0.15 91 1008.9
20260506205555 75 164 0.0 3.0 0.14 0.14 0.14 90 1009.0
20260506205034 75 164 1.0 3.0 0.12 0.12 0.12 89 1009.0
20260506204520 75 159 1.0 3.0 0.01 0.01 0.01 88 1009.0
20260506204023 76 167 1.0 5.0 0.00 0.00 0.00 88 1008.6
20260506203554 76 167 1.0 5.0 0.00 0.00 0.00 87 1008.6
20260506203045 76 162 1.0 4.0 0.00 0.00 0.00 86 1008.6
20260506202524 76 136 1.0 5.0 0.00 0.00 0.00 86 1008.8
20260506202029 76 144 2.0 5.0 0.00 0.00 0.00 85 1008.8
20260506201520 76 157 2.0 4.0 0.00 0.00 0.00 85 1008.8
20260506201051 77 157 1.0 4.0 0.00 0.00 0.00 85 1009.0
20260506200533 77 158 1.0 4.0 0.00 0.00 0.00 85 1009.0
20260506200017 77 153 2.0 8.0 0.00 0.00 0.00 84 1009.0
20260506195532 77 157 2.0 8.0 0.00 0.00 0.00 84 1009.4
20260506195034 77 151 1.0 7.0 0.00 0.00 0.00 85 1009.4
20260506194533 77 159 1.0 7.0 0.00 0.00 0.00 85 1009.4
20260506194029 77 144 1.0 4.0 0.00 0.00 0.00 84 1009.8
20260506193534 77 178 1.0 3.0 0.00 0.00 0.00 84 1009.8
20260506193038 77 161 1.0 4.0 0.00 0.00 0.00 84 1009.8
20260506192514 77 163 2.0 5.0 0.00 0.00 0.00 84 1010.0
20260506192033 77 155 2.0 5.0 0.00 0.00 0.00 83 1010.0
20260506191530 77 151 1.0 4.0 0.00 0.00 0.00 84 1010.0
20260506191034 77 165 2.0 5.0 0.00 0.00 0.00 84 1010.2
20260506190548 77 164 2.0 5.0 0.00 0.00 0.00 83 1010.2
20260506190039 77 150 1.0 2.0 0.00 0.00 0.00 83 1010.2
20260506185544 77 150 1.0 4.0 0.00 0.00 0.00 83 1010.2
20260506185046 77 156 2.0 7.0 0.00 0.00 0.00 83 1010.2
20260506184537 77 149 1.0 7.0 0.00 0.00 0.00 83 1010.2
20260506184035 77 166 1.0 6.0 0.00 0.00 0.00 83 1010.2
20260506183515 77 110 2.0 7.0 0.00 0.00 0.00 82 1010.2
20260506183037 77 69 3.0 7.0 0.00 0.00 0.00 82 1010.2
20260506182546 78 152 2.0 7.0 0.00 0.00 0.00 82 1010.3
20260506182042 78 171 2.0 6.0 0.00 0.00 0.00 82 1010.3
20260506181545 77 167 2.0 6.0 0.00 0.00 0.00 83 1010.3
20260506181024 77 165 1.0 5.0 0.00 0.00 0.00 82 1010.3
20260506180526 77 165 2.0 5.0 0.00 0.00 0.00 82 1010.3
20260506180026 77 106 2.0 8.0 0.00 0.00 0.00 82 1010.3
20260506175543 77 179 2.0 8.0 0.00 0.00 0.00 82 1010.3
20260506175032 77 131 2.0 3.0 0.00 0.00 0.00 82 1010.3
20260506174536 77 154 0.0 3.0 0.00 0.00 0.00 82 1010.3
20260506174029 77 154 1.0 3.0 0.00 0.00 0.00 82 1010.4
20260506173542 77 175 1.0 8.0 0.00 0.00 0.00 81 1010.4
20260506173041 77 163 3.0 8.0 0.00 0.00 0.00 81 1010.4
20260506172529 77 165 3.0 10.0 0.00 0.00 0.00 81 1010.7
20260506172018 77 180 5.0 10.0 0.00 0.00 0.00 80 1010.7
20260506171556 77 141 2.0 8.0 0.00 0.00 0.00 81 1010.7
20260506171030 77 156 3.0 7.0 0.00 0.00 0.00 80 1010.4
20260506170518 77 147 3.0 10.0 0.00 0.00 0.00 80 1010.4
20260506170020 78 140 2.0 7.0 0.00 0.00 0.00 80 1010.4
20260506165553 77 138 3.0 8.0 0.00 0.00 0.00 79 1010.7
20260506165019 78 169 3.0 8.0 0.00 0.00 0.00 79 1010.7
20260506164525 78 172 3.0 7.0 0.00 0.00 0.00 79 1010.7
20260506164034 78 149 1.0 5.0 0.00 0.00 0.00 79 1010.7
20260506163537 78 123 1.0 6.0 0.00 0.00 0.00 79 1010.7
20260506163023 79 160 2.0 9.0 0.00 0.00 0.00 77 1010.7
20260506162524 79 148 1.0 7.0 0.00 0.00 0.00 78 1010.5
20260506162025 78 172 3.0 7.0 0.00 0.00 0.00 78 1010.5
20260506161519 78 183 2.0 5.0 0.00 0.00 0.00 79 1010.5
20260506161019 78 157 2.0 6.0 0.00 0.00 0.00 80 1010.4
20260506160524 77 117 2.0 6.0 0.00 0.00 0.00 80 1010.4
20260506160035 77 143 3.0 5.0 0.00 0.00 0.00 80 1010.4
20260506155534 77 170 1.0 9.0 0.00 0.00 0.00 81 1010.6
20260506155034 77 161 1.0 4.0 0.00 0.00 0.00 82 1010.6
20260506154518 76 111 1.0 6.0 0.00 0.00 0.00 82 1010.6
20260506154018 76 154 2.0 7.0 0.00 0.00 0.00 82 1010.5
20260506153532 76 143 2.0 7.0 0.00 0.00 0.00 83 1010.5
20260506153028 75 157 1.0 5.0 0.00 0.00 0.00 84 1010.5
20260506152519 75 141 1.0 5.0 0.00 0.00 0.00 84 1010.8
20260506152017 75 163 2.0 3.0 0.00 0.00 0.00 84 1010.8
20260506151553 74 141 1.0 4.0 0.00 0.00 0.00 85 1010.8
20260506151015 74 142 1.0 4.0 0.00 0.00 0.00 84 1010.8
20260506150530 74 146 1.0 8.0 0.00 0.00 0.00 85 1010.8
20260506150032 74 24 1.0 8.0 0.00 0.00 0.00 85 1010.8
20260506145516 73 5 1.0 8.0 0.00 0.00 0.00 85 1010.8
20260506145033 73 139 1.0 3.0 0.00 0.00 0.00 86 1010.8
20260506144534 73 128 0.0 5.0 0.00 0.00 0.00 86 1010.8
20260506144016 73 142 1.0 5.0 0.00 0.00 0.00 86 1010.8
20260506143530 73 155 2.0 5.0 0.00 0.00 0.00 86 1010.8
20260506143017 72 212 1.0 7.0 0.00 0.00 0.00 87 1010.8
20260506142550 72 135 2.0 7.0 0.00 0.00 0.00 87 1010.8
20260506142028 72 160 1.0 4.0 0.00 0.00 0.00 88 1010.8
20260506141517 72 175 1.0 4.0 0.00 0.00 0.00 88 1010.8
20260506141030 71 185 2.0 4.0 0.00 0.00 0.00 88 1010.8
20260506140538 71 150 1.0 6.0 0.00 0.00 0.00 88 1010.8
20260506140030 71 170 2.0 3.0 0.00 0.00 0.00 89 1010.8
20260506135533 71 169 2.0 4.0 0.00 0.00 0.00 89 1011.1
20260506135023 70 72 2.0 4.0 0.00 0.00 0.00 89 1011.1
20260506134529 70 138 1.0 3.0 0.00 0.00 0.00 90 1011.1
20260506134107 70 129 2.0 5.0 0.00 0.00 0.00 90 1011.2
20260506133545 70 165 1.0 6.0 0.00 0.00 0.00 90 1011.2
20260506133102 70 85 2.0 6.0 0.00 0.00 0.00 90 1011.2
20260506132534 69 147 1.0 4.0 0.00 0.00 0.00 90 1011.3
20260506132016 69 128 1.0 6.0 0.00 0.00 0.00 90 1011.3
20260506131530 69 192 1.0 6.0 0.00 0.00 0.00 90 1011.3
20260506130537 69 184 1.0 6.0 0.00 0.00 0.00 90 1011.3
20260506130020 69 219 2.0 6.0 0.00 0.00 0.00 90 1011.3
20260506125527 69 160 2.0 5.0 0.00 0.00 0.00 90 1011.3
20260506125059 69 151 0.0 6.0 0.00 0.00 0.00 90 1011.3
20260506124548 69 151 1.0 6.0 0.00 0.00 0.00 90 1011.3
20260506124040 68 155 0.0 3.0 0.00 0.00 0.00 90 1011.1
20260506123543 68 155 1.0 5.0 0.00 0.00 0.00 90 1011.1
20260506123041 68 150 2.0 5.0 0.00 0.00 0.00 90 1011.1
20260506122540 68 151 3.0 5.0 0.00 0.00 0.00 90 1010.8
20260506122014 68 355 1.0 5.0 0.00 0.00 0.00 90 1010.8
20260506121532 68 346 2.0 5.0 0.00 0.00 0.00 90 1010.8
20260506121043 68 154 0.0 2.0 0.00 0.00 0.00 89 1010.3
20260506120528 68 154 0.0 4.0 0.00 0.00 0.00 89 1010.3
20260506115549 68 160 1.0 4.0 0.00 0.00 0.00 89 1010.2
20260506115039 68 167 2.0 4.0 0.00 0.00 0.00 89 1010.2
20260506114542 68 172 2.0 3.0 0.00 0.00 0.00 89 1010.2
20260506114032 68 218 1.0 4.0 0.00 0.00 0.00 89 1009.8
20260506113518 68 157 1.0 4.0 0.00 0.00 0.00 89 1009.8
20260506113020 68 150 0.0 4.0 0.00 0.00 0.00 89 1009.8
20260506112536 68 150 1.0 4.0 0.00 0.00 0.00 88 1009.8
20260506112019 67 180 1.0 7.0 0.00 0.00 0.00 88 1009.8
20260506111522 67 226 2.0 7.0 0.00 0.00 0.00 88 1009.8
20260506111054 67 184 2.0 6.0 0.00 0.00 0.00 88 1009.7
20260506110524 68 177 3.0 6.0 0.00 0.00 0.00 88 1009.7
20260506110032 67 158 1.0 3.0 0.00 0.00 0.00 88 1009.7
20260506105535 67 161 0.0 2.0 0.00 0.00 0.00 88 1009.4
20260506105021 67 140 0.0 4.0 0.00 0.00 0.00 88 1009.4
20260506104527 67 157 0.0 5.0 0.00 0.00 0.00 87 1009.4
20260506104020 67 173 1.0 5.0 0.00 0.00 0.00 87 1009.2
20260506103533 68 171 3.0 5.0 0.00 0.00 0.00 87 1009.2
20260506103028 68 147 1.0 4.0 0.00 0.00 0.00 87 1009.2
20260506102533 68 242 1.0 5.0 0.00 0.00 0.00 87 1009.2
20260506102046 68 107 1.0 6.0 0.00 0.00 0.00 87 1009.2
20260506101536 68 141 2.0 6.0 0.00 0.00 0.00 87 1009.2
20260506101024 68 123 1.0 5.0 0.00 0.00 0.00 86 1008.9
20260506100555 68 182 1.0 2.0 0.00 0.00 0.00 86 1008.9
20260506100025 68 182 1.0 4.0 0.00 0.00 0.00 86 1008.9
20260506095533 68 184 2.0 4.0 0.00 0.00 0.00 86 1008.7
20260506095022 68 169 1.0 3.0 0.00 0.00 0.00 86 1008.7
20260506094021 68 145 2.0 6.0 0.00 0.00 0.00 86 1008.6
20260506093530 68 145 1.0 4.0 0.00 0.00 0.00 86 1008.6
20260506093019 68 159 1.0 4.0 0.00 0.00 0.00 85 1008.6
20260506092539 68 174 2.0 4.0 0.00 0.00 0.00 85 1008.5
20260506092041 68 157 1.0 3.0 0.00 0.00 0.00 85 1008.5
20260506091524 68 157 2.0 3.0 0.00 0.00 0.00 85 1008.5
20260506091020 68 172 1.0 2.0 0.00 0.00 0.00 85 1008.2
20260506090518 68 172 1.0 2.0 0.00 0.00 0.00 85 1008.2
20260506090015 68 172 1.0 5.0 0.00 0.00 0.00 84 1008.2
20260506085536 68 175 2.0 5.0 0.00 0.00 0.00 84 1008.0
20260506085032 68 165 2.0 4.0 0.00 0.00 0.00 84 1008.0
20260506084530 68 158 0.0 3.0 0.00 0.00 0.00 84 1008.0
20260506084031 68 113 2.0 5.0 0.00 0.00 0.00 84 1008.2
20260506083519 69 163 2.0 8.0 0.00 0.00 0.00 84 1008.2
20260506083024 69 157 2.0 7.0 0.00 0.00 0.00 84 1008.2
20260506082526 69 146 1.0 4.0 0.00 0.00 0.00 84 1008.2
20260506081531 69 74 1.0 6.0 0.00 0.00 0.00 83 1008.2
20260506081020 69 159 1.0 6.0 0.00 0.00 0.00 83 1008.2
20260506080520 69 161 0.0 3.0 0.00 0.00 0.00 83 1008.2
20260506073020 69 175 1.0 7.0 0.00 0.00 0.00 81 1008.2
20260506072602 69 173 3.0 6.0 0.00 0.00 0.00 80 1008.3
20260506072044 69 158 2.0 5.0 0.00 0.00 0.00 80 1008.3
20260506071534 69 171 1.0 4.0 0.00 0.00 0.00 80 1008.3
20260506071016 70 148 2.0 4.0 0.00 0.00 0.00 80 1008.6
20260506070521 70 162 0.0 6.0 0.00 0.00 0.00 80 1008.6
20260506061520 70 169 2.0 6.0 0.00 0.00 0.00 78 1008.9
20260506061038 70 140 2.0 5.0 0.00 0.00 0.00 79 1009.1
20260506060557 70 159 1.0 3.0 0.00 0.00 0.00 78 1009.1
20260506051022 71 131 2.0 6.0 0.00 0.00 0.00 77 1009.1
20260506050525 71 290 2.0 6.0 0.00 0.00 0.00 77 1009.1
20260506045021 71 161 2.0 5.0 0.00 0.00 0.00 76 1008.9
20260506044539 71 150 2.0 7.0 0.00 0.00 0.00 76 1008.9
20260506044037 71 171 1.0 7.0 0.00 0.00 0.00 76 1008.6
20260506043523 71 177 2.0 9.0 0.00 0.00 0.00 76 1008.6
20260506043029 71 194 3.0 9.0 0.00 0.00 0.00 75 1008.6
20260506042544 72 94 3.0 6.0 0.00 0.00 0.00 75 1008.7
20260506042027 72 198 1.0 6.0 0.00 0.00 0.00 75 1008.7
20260506041529 72 180 3.0 7.0 0.00 0.00 0.00 75 1008.7
20260506041029 72 97 2.0 8.0 0.00 0.00 0.00 75 1008.7
20260506040033 72 146 1.0 5.0 0.00 0.00 0.00 76 1008.7
20260506035513 72 161 2.0 5.0 0.00 0.00 0.00 75 1008.7
20260506035016 72 142 2.0 5.0 0.00 0.00 0.00 75 1008.7
20260506034534 72 149 2.0 5.0 0.00 0.00 0.00 75 1008.7
20260506034024 72 167 2.0 8.0 0.00 0.00 0.00 75 1008.8
20260506033526 72 198 2.0 8.0 0.00 0.00 0.00 74 1008.8
20260506032553 72 178 3.0 11.0 0.00 0.00 0.00 75 1008.9
20260506032015 72 154 1.0 6.0 0.00 0.00 0.00 75 1008.9
20260506031525 71 139 1.0 7.0 0.00 0.00 0.00 74 1008.9
20260506031036 71 214 3.0 7.0 0.00 0.00 0.00 74 1008.6
20260506030544 71 163 1.0 5.0 0.00 0.00 0.00 75 1008.6
20260506030046 71 146 1.0 5.0 0.00 0.00 0.00 75 1008.6
20260506025532 71 200 1.0 5.0 0.00 0.00 0.00 75 1008.6
20260506025022 71 324 1.0 2.0 0.00 0.00 0.00 75 1008.6
20260506024556 71 140 0.0 3.0 0.00 0.00 0.00 74 1008.6
20260506023524 70 153 1.0 3.0 0.00 0.00 0.00 74 1008.5
20260506023028 70 188 1.0 3.0 0.00 0.00 0.00 74 1008.5
20260506022541 70 186 1.0 3.0 0.00 0.00 0.00 74 1008.2
20260506022034 70 186 1.0 2.0 0.00 0.00 0.00 74 1008.2
20260506021549 71 186 0.0 1.0 0.00 0.00 0.00 74 1008.2
20260506021031 71 186 0.0 1.0 0.00 0.00 0.00 75 1008.3
20260506020518 71 186 0.0 1.0 0.00 0.00 0.00 75 1008.3
20260506020026 71 186 0.0 0.0 0.00 0.00 0.00 75 1008.3
20260506015535 71 186 0.0 0.0 0.00 0.00 0.00 75 1008.2
20260506015035 71 186 0.0 0.0 0.00 0.00 0.00 74 1008.2
20260506014528 72 186 0.0 0.0 0.00 0.00 0.00 74 1008.2
20260506014028 72 186 0.0 0.0 0.00 0.00 0.00 74 1008.2
20260506013525 72 186 0.0 0.0 0.00 0.00 0.00 74 1008.2
20260506013021 72 186 0.0 1.0 0.00 0.00 0.00 74 1008.2
20260506012528 72 186 0.0 1.0 0.00 0.00 0.00 74 1008.6
20260506012032 72 186 0.0 1.0 0.00 0.00 0.00 73 1008.6
20260506011034 72 186 0.0 1.0 0.00 0.00 0.00 72 1008.2
20260506010537 73 186 0.0 1.0 0.00 0.00 0.00 71 1008.2
20260506010045 73 186 0.0 0.0 0.00 0.00 0.00 72 1008.2
20260506005533 73 186 0.0 1.0 0.00 0.00 0.00 71 1008.1
20260506005029 74 186 0.0 1.0 0.00 0.00 0.00 71 1008.1
20260506004526 74 186 0.0 1.0 0.00 0.00 0.00 70 1008.1
20260506004022 74 186 0.0 1.0 0.00 0.00 0.00 71 1008.0
20260506003529 74 186 0.0 1.0 0.00 0.00 0.00 71 1008.0
20260506003043 74 186 0.0 2.0 0.00 0.00 0.00 70 1008.0
20260506002537 75 186 1.0 2.0 0.00 0.00 0.00 67 1008.2
20260506002021 75 186 1.0 2.0 0.00 0.00 0.00 69 1008.2
20260506001524 75 186 0.0 2.0 0.00 0.00 0.00 68 1008.2
20260506001028 75 163 1.0 3.0 0.00 0.00 0.00 66 1008.6
20260506000542 75 163 1.0 3.0 0.00 0.00 0.00 67 1008.6
20260506000044 75 158 1.0 2.0 0.00 0.00 0.00 67 1008.6
20260505235525 76 158 1.0 2.0 0.00 0.00 0.00 67 1008.3
20260505235034 76 157 1.0 4.0 0.00 0.00 0.00 66 1008.3
20260505234523 76 157 1.0 4.0 0.00 0.00 0.00 64 1008.3
20260505234029 76 147 0.0 4.0 0.00 0.00 0.00 64 1008.6
20260505233533 76 174 1.0 4.0 0.00 0.00 0.00 65 1008.6
20260505233022 76 155 1.0 4.0 0.00 0.00 0.00 65 1008.6
20260505232527 76 169 1.0 3.0 0.00 0.00 0.00 63 1008.7
20260505232031 76 122 0.0 3.0 0.00 0.00 0.00 66 1008.7
20260505231518 76 122 1.0 3.0 0.00 0.00 0.00 63 1008.7
20260505231025 76 146 1.0 4.0 0.00 0.00 0.00 65 1008.7
20260505230535 76 147 1.0 7.0 0.00 0.00 0.00 64 1008.7
20260505230041 76 117 3.0 6.0 0.00 0.00 0.00 62 1008.7
20260505225602 76 154 1.0 5.0 0.00 0.00 0.00 63 1009.1
20260505225051 76 101 2.0 5.0 0.00 0.00 0.00 65 1009.1
20260505224541 76 183 1.0 4.0 0.00 0.00 0.00 64 1009.1
20260505224027 76 207 1.0 4.0 0.00 0.00 0.00 64 1009.0
20260505223523 77 157 2.0 4.0 0.00 0.00 0.00 62 1009.0
20260505223025 77 159 1.0 4.0 0.00 0.00 0.00 63 1009.0
20260505222531 77 161 1.0 7.0 0.00 0.00 0.00 62 1008.7
20260505222021 77 162 2.0 7.0 0.00 0.00 0.00 62 1008.7
20260505221523 77 202 2.0 6.0 0.00 0.00 0.00 61 1008.7
20260505221029 77 165 2.0 5.0 0.00 0.00 0.00 61 1008.8
20260505220519 77 150 2.0 5.0 0.00 0.00 0.00 62 1008.8
20260505220024 77 157 2.0 4.0 0.00 0.00 0.00 62 1008.8
20260505215534 77 177 1.0 4.0 0.00 0.00 0.00 63 1009.0